TimeCDT,TemperatureF,Dew PointF,Humidity,Sea Level PressureIn,VisibilityMPH,Wind Direction,Wind SpeedMPH,Gust SpeedMPH,PrecipitationIn,Events,Conditions,WindDirDegrees,DateUTC
12:53 AM,62.1,60.1,93,30.12,10.0,Calm,Calm,-,N/A,,Unknown,0,2013-08-04 05:53:00
1:53 AM,60.1,59.0,96,30.12,10.0,Calm,Calm,-,N/A,,Unknown,0,2013-08-04 06:53:00
2:53 AM,44.1,44.1,100,30.12,10.0,Calm,Calm,-,N/A,,Unknown,0,2013-08-04 07:53:00
3:53 AM,59.0,57.9,96,30.11,10.0,North,3.5,-,N/A,,Unknown,360,2013-08-04 08:53:00
4:53 AM,-0.9,-0.9,100,30.14,10.0,Calm,Calm,-,N/A,,Unknown,0,2013-08-04 09:53:00
5:53 AM,57.9,57.0,97,30.15,10.0,Calm,Calm,-,N/A,,Unknown,0,2013-08-04 10:53:00
6:53 AM,59.0,57.9,96,30.16,10.0,Calm,Calm,-,N/A,,Unknown,0,2013-08-04 11:53:00
7:53 AM,64.0,57.9,80,30.17,10.0,NE,3.5,-,N/A,,Unknown,40,2013-08-04 12:53:00
8:53 AM,69.1,57.9,68,30.17,10.0,East,3.5,-,N/A,,Unknown,80,2013-08-04 13:53:00
9:53 AM,73.0,57.0,57,30.17,10.0,ENE,5.8,-,N/A,,Clear,70,2013-08-04 14:53:00
10:53 AM,73.9,55.0,52,30.17,10.0,ENE,3.5,-,N/A,,Clear,70,2013-08-04 15:53:00
11:53 AM,73.9,54.0,50,30.18,10.0,Calm,Calm,-,N/A,,Clear,0,2013-08-04 16:53:00
12:53 PM,75.9,55.0,48,30.17,10.0,NE,4.6,-,N/A,,Partly Cloudy,50,2013-08-04 17:53:00
1:53 PM,77.0,55.9,48,30.16,10.0,North,4.6,-,N/A,,Partly Cloudy,350,2013-08-04 18:53:00
2:53 PM,77.0,55.9,48,30.15,10.0,Calm,Calm,-,N/A,,Partly Cloudy,0,2013-08-04 19:53:00
3:53 PM,77.0,57.0,50,30.14,10.0,Variable,4.6,-,N/A,,Scattered Clouds,0,2013-08-04 20:53:00
4:53 PM,77.0,55.0,47,30.13,10.0,NNE,5.8,-,N/A,,Clear,20,2013-08-04 21:53:00
5:53 PM,77.0,57.0,50,30.12,10.0,ENE,5.8,-,N/A,,Clear,70,2013-08-04 22:53:00
6:53 PM,73.9,60.1,62,30.11,10.0,East,3.5,-,N/A,,Clear,90,2013-08-04 23:53:00
7:53 PM,69.1,62.1,78,30.11,10.0,Calm,Calm,-,N/A,,Clear,0,2013-08-05 00:53:00
8:53 PM,66.0,63.0,90,30.12,10.0,Calm,Calm,-,N/A,,Clear,0,2013-08-05 01:53:00
9:53 PM,64.0,62.1,93,30.12,10.0,Calm,Calm,-,N/A,,Clear,0,2013-08-05 02:53:00
10:53 PM,62.1,61.0,96,30.12,10.0,Calm,Calm,-,N/A,,Clear,0,2013-08-05 03:53:00
11:53 PM,61.0,61.0,100,30.11,10.0,Calm,Calm,-,N/A,,Clear,0,2013-08-05 04:53:00